Vorticity
1 3 4 4 4 3 3 4 5 6 5 4 -0 0 2 4 3 3 2 5 8 4 2 2 1 2 3 4 7 7 5 6 8 6 7 8 8 8 7 7 9 5 7
2 -2 5 3 4 4 4 4 4 5 7 5 4 0 0 0 2 2 2 3 6 9 5 1 1 1 3 2 3 5 2 4 5 8 8 7 7 8 9 7 6 10 7
-16 2 2 5 4 2 4 4 5 5 5 7 6 5 3 2 2 2 2 2 3 9 9 8 5 4 4 5 2 5 -1 6 5 4 7 8 7 7 8 9 7 7 11
15 18 14 12 7 6 5 5 6 9 8 8 5 6 7 3 0 2 3 1 2 7 8 7 7 7 6 6 4 5 3 2 5 6 4 6 8 6 6 8 9 6 6
10 -10 16 -5 6 12 18 5 -12 -4 8 -1 7 11 2 8 3 3 4 1 0 5 9 7 7 6 6 6 5 6 6 6 6 5 4 4 2 6 8 6 6 7 7
1 9 3 10 -38 15 7 -5 13 1 16 -8 2 7 1 2 2 4 3 1 2 3 10 7 6 6 6 6 5 6 6 4 4 5 6 3 3 1 3 6 7 7 5
48 5 15 28 -1 13 -5 12 2 18 -25 1 8 2 11 6 4 3 3 2 1 2 11 8 6 6 6 6 6 5 6 7 6 3 5 6 5 4 5 3 3 7 6
2 7 24 -1 19 -3 17 12 4 18 22 15 6 0 6 9 8 5 3 3 3 2 10 9 6 6 6 6 6 6 5 6 6 6 5 2 6 5 5 6 6 6 5
2 14 -7 8 -4 19 7 7 10 2 4 14 16 12 12 7 7 6 4 4 3 3 9 10 6 6 6 6 6 6 6 5 6 6 7 6 -2 -1 11 4 4 4 6
-10 -3 -10 -2 22 10 5 12 3 8 12 7 6 12 11 10 6 7 7 6 4 6 10 11 7 6 6 6 6 6 7 7 7 6 5 6 6 5 1 -5 3 8 5
26 18 12 25 8 5 10 7 7 12 4 6 10 7 9 8 5 5 9 5 4 7 9 8 6 5 5 6 6 6 6 6 6 7 7 6 7 6 6 5 4 -6 -6
18 -1 -2 -7 13 8 10 7 7 7 5 7 5 5 6 5 3 1 4 5 5 8 9 8 7 6 6 6 6 6 6 6 6 5 5 5 5 5 6 5 5 7 6
7 13 18 16 10 6 8 8 7 6 6 7 5 7 7 6 5 7 6 7 7 9 9 8 7 7 6 7 7 6 6 6 6 6 6 6 6 6 6 5 6 6 8
11 11 10 10 9 9 8 7 9 8 8 8 7 7 7 7 8 7 8 9 10 9 9 7 7 7 7 6 6 6 6 6 6 6 6 6 6 6 7 6 6 7 6
9 9 10 11 11 11 12 12 11 10 10 9 9 9 8 8 8 9 9 8 8 9 8 8 7 7 7 7 7 6 6 7 6 6 6 5 6 6 6 6 7 7 7
8 9 8 9 10 10 10 10 10 10 10 10 10 10 9 9 8 8 8 8 8 8 8 7 8 7 7 7 7 7 7 6 6 6 6 5 5 6 6 6 6 6 6
10 9 9 9 9 9 9 9 9 10 9 9 9 9 9 10 10 10 9 9 9 8 8 9 8 7 7 7 7 7 7 7 7 6 6 6 6 5 6 6 6 7 7
11 11 11 11 12 11 10 10 10 9 11 10 9 10 10 9 9 10 9 8 8 8 8 8 8 8 7 8 7 7 8 8 7 7 7 7 7 7 6 6 7 7 7
11 11 11 10 10 11 11 11 11 11 10 10 11 10 10 10 10 10 10 9 9 8 9 8 9 9 8 9 8 8 7 7 8 8 8 7 8 8 9 9 8 7 7
10 11 12 13 12 12 12 12 11 11 11 10 11 12 12 10 10 10 10 10 10 10 9 9 8 9 9 9 9 9 8 9 7 7 7 9 8 8 9 10 10 8 9
9 5 8 10 11 12 11 11 11 12 12 12 11 10 10 10 10 10 10 10 10 9 9 9 9 9 10 9 10 8 9 8 8 9 8 7 8 9 9 8 8 8 8
3 1 3 7 7 4 2 -0 3 5 6 7 7 8 8 8 9 9 9 9 8 9 9 9 8 8 8 9 9 9 9 8 9 10 9 7 10 8 6 5 5 6 6
9 15 12 13 11 7 6 3 3 4 4 4 4 5 6 6 6 6 6 6 6 5 6 7 6 6 7 6 7 7 8 8 10 8 8 7 5 6 6 9 10 9 8
7 12 6 4 7 6 9 12 12 13 14 13 13 12 11 11 12 11 10 9 9 9 10 10 9 8 9 8 8 9 8 7 8 8 11 10 9 9 11 13 13 14 16
8 11 10 8 6 7 9 11 11 9 8 9 9 9 10 11 11 13 15 14 14 15 14 14 13 13 12 13 13 13 14 16 15 13 14 21 16 16 15 15 15 15 15
14 14 11 11 10 9 9 10 12 12 12 10 10 10 11 11 12 11 11 11 12 12 12 13 13 12 12 13 12 13 13 13 14 12 11 15 13 14 16 10 12 12 13
Height
3141 3145 3148 3150 3152 3155 3158 3160 3163 3165 3166 3168 3170 3171 3172 3173 3174 3175 3175 3175 3175 3176 3175 3175 3174 3174 3174 3173 3172 3172 3171 3170 3169 3169 3168 3166 3165 3164 3163 3163 3161 3161 3162
3136 3140 3143 3146 3149 3151 3154 3156 3158 3162 3164 3166 3168 3169 3170 3171 3172 3173 3174 3174 3174 3174 3174 3174 3174 3174 3173 3172 3172 3172 3171 3171 3170 3169 3168 3167 3166 3165 3164 3164 3163 3162 3161
3128 3135 3138 3140 3143 3147 3149 3152 3155 3158 3160 3163 3166 3167 3169 3168 3169 3171 3172 3173 3173 3173 3173 3173 3173 3173 3172 3171 3172 3171 3171 3171 3171 3170 3168 3168 3168 3166 3165 3165 3164 3163 3162
3124 3129 3131 3134 3137 3140 3144 3147 3151 3154 3156 3159 3161 3164 3165 3166 3166 3167 3168 3170 3170 3171 3171 3171 3171 3170 3171 3171 3170 3170 3169 3170 3170 3169 3169 3168 3167 3167 3166 3165 3164 3164 3163
3114 3117 3119 3126 3130 3134 3137 3141 3145 3148 3152 3155 3157 3159 3160 3162 3163 3164 3164 3166 3167 3168 3169 3168 3168 3168 3169 3169 3169 3169 3168 3167 3168 3168 3168 3168 3168 3167 3166 3165 3165 3164 3163
3108 3111 3116 3119 3123 3122 3129 3133 3136 3141 3146 3149 3152 3155 3156 3158 3159 3161 3161 3163 3164 3164 3166 3166 3165 3165 3166 3166 3166 3167 3166 3166 3166 3166 3166 3167 3166 3166 3166 3165 3165 3164 3163
3100 3103 3109 3113 3115 3118 3124 3127 3133 3135 3139 3144 3146 3148 3150 3152 3154 3155 3157 3159 3160 3161 3162 3163 3163 3163 3163 3163 3163 3163 3163 3164 3164 3163 3164 3164 3165 3164 3164 3164 3164 3163 3163
3095 3098 3100 3104 3111 3112 3116 3120 3124 3128 3132 3135 3138 3143 3144 3147 3147 3150 3152 3154 3155 3157 3157 3158 3158 3159 3159 3159 3159 3160 3159 3160 3161 3161 3161 3161 3161 3161 3161 3161 3162 3161 3161
3090 3096 3097 3099 3103 3107 3111 3115 3119 3123 3126 3128 3131 3133 3136 3139 3142 3144 3146 3148 3150 3151 3152 3152 3152 3153 3154 3154 3155 3155 3156 3156 3157 3157 3158 3157 3157 3157 3158 3159 3158 3158 3159
3085 3088 3090 3094 3101 3102 3106 3109 3113 3116 3119 3122 3125 3127 3128 3131 3135 3138 3140 3143 3144 3145 3146 3146 3146 3147 3148 3149 3150 3150 3151 3152 3153 3152 3153 3153 3154 3154 3154 3154 3155 3156 3155
3078 3083 3088 3090 3091 3095 3099 3103 3106 3109 3113 3116 3118 3120 3122 3123 3127 3130 3134 3136 3137 3138 3139 3139 3140 3142 3142 3143 3144 3144 3146 3147 3147 3147 3147 3148 3149 3149 3149 3148 3149 3149 3149
3073 3076 3080 3083 3087 3090 3094 3096 3099 3102 3106 3109 3112 3114 3115 3117 3119 3121 3124 3128 3130 3131 3131 3132 3133 3135 3136 3137 3137 3138 3139 3141 3141 3141 3141 3142 3143 3144 3144 3143 3143 3143 3144
3067 3070 3073 3077 3080 3083 3087 3090 3092 3095 3098 3102 3105 3106 3107 3109 3111 3112 3116 3120 3122 3122 3123 3124 3126 3128 3128 3129 3130 3131 3132 3133 3134 3134 3135 3135 3136 3137 3138 3137 3138 3137 3137
3061 3064 3068 3071 3073 3076 3079 3082 3084 3087 3091 3094 3097 3099 3099 3101 3103 3105 3108 3110 3113 3114 3115 3116 3118 3120 3121 3121 3122 3123 3124 3125 3126 3126 3127 3127 3129 3130 3130 3131 3131 3131 3130
3053 3057 3060 3063 3065 3068 3071 3074 3077 3079 3082 3085 3088 3090 3091 3092 3095 3095 3098 3101 3104 3106 3107 3107 3109 3111 3113 3114 3114 3115 3115 3116 3117 3118 3119 3119 3119 3120 3121 3122 3123 3123 3123
3046 3049 3052 3055 3057 3060 3063 3067 3069 3071 3074 3076 3078 3080 3081 3083 3085 3086 3089 3092 3094 3097 3099 3100 3100 3102 3103 3104 3105 3106 3107 3108 3109 3109 3109 3110 3111 3111 3112 3112 3113 3114 3113
3040 3042 3045 3048 3050 3052 3055 3057 3059 3063 3065 3067 3068 3070 3072 3074 3076 3077 3079 3082 3084 3086 3088 3090 3091 3092 3093 3095 3095 3096 3097 3098 3099 3098 3099 3100 3101 3101 3101 3103 3103 3103 3103
3032 3035 3037 3039 3041 3043 3046 3047 3051 3053 3056 3057 3059 3060 3063 3065 3065 3068 3070 3072 3074 3075 3078 3080 3082 3082 3083 3084 3085 3086 3087 3087 3088 3089 3088 3089 3089 3090 3091 3091 3092 3092 3092
3025 3027 3029 3031 3033 3035 3037 3039 3041 3044 3045 3047 3049 3052 3053 3055 3056 3059 3061 3061 3063 3064 3065 3068 3072 3072 3073 3073 3074 3074 3075 3075 3076 3077 3077 3077 3077 3077 3079 3079 3079 3080 3080
3019 3021 3022 3024 3026 3028 3029 3031 3033 3035 3036 3038 3040 3042 3045 3045 3046 3049 3051 3051 3052 3054 3055 3056 3058 3061 3061 3063 3062 3063 3064 3063 3065 3064 3065 3065 3067 3066 3066 3066 3066 3065 3066
3013 3015 3016 3017 3019 3020 3022 3023 3025 3027 3028 3030 3032 3034 3034 3034 3038 3039 3040 3042 3043 3044 3044 3045 3045 3048 3049 3050 3050 3050 3051 3052 3053 3052 3054 3054 3055 3054 3053 3053 3052 3052 3052
3005 3007 3009 3010 3012 3013 3015 3017 3018 3019 3021 3022 3024 3025 3025 3026 3028 3030 3031 3032 3033 3034 3035 3035 3034 3035 3037 3038 3039 3039 3040 3039 3040 3042 3040 3042 3041 3042 3041 3041 3040 3038 3037
2995 2998 3000 3002 3004 3005 3007 3008 3009 3011 3012 3013 3015 3016 3017 3017 3018 3020 3021 3022 3023 3024 3025 3025 3024 3024 3024 3025 3026 3027 3027 3027 3026 3025 3026 3028 3027 3028 3027 3027 3025 3024 3022
2987 2988 2991 2992 2994 2996 2997 2998 3000 3002 3003 3004 3005 3006 3007 3007 3008 3009 3010 3011 3012 3014 3014 3013 3013 3014 3013 3012 3012 3013 3014 3014 3013 3012 3009 3011 3012 3013 3012 3011 3009 3008 3007
2978 2980 2981 2982 2985 2987 2987 2989 2990 2992 2993 2994 2995 2997 2997 2998 2999 2999 2999 3000 3001 3002 3002 3002 3002 3002 3001 3000 2999 3000 3001 2998 2999 2999 2997 2995 2994 2995 2996 2996 2995 2993 2991
2969 2970 2973 2974 2975 2978 2978 2980 2981 2983 2984 2984 2985 2986 2987 2988 2988 2989 2988 2990 2991 2991 2991 2993 2992 2991 2990 2990 2990 2988 2988 2988 2986 2985 2987 2985 2983 2979 2979 2980 2980 2978 2978